C/2016 X1 ( Lemmon )

Japanese version
Home page
Updated on December 31, 2016

---------------------------------------------------------------------

* Profile

Discovery Date December 8, 2016
Magnitude 20.1 mag
Discoverer G. J. Leonard (Mount Lemmon)

* Pictures

* Orbital Elements

Epoch 2019 Apr. 27.0 TT = JDT 2458600.5
T 2019 May 2.01086 TT                                   MPCW
q   7.5746218            (2000.0)            P               Q
z  +0.0010213      Peri.  224.57010     -0.44297125     -0.78447292
 +/-0.0015451      Node   256.41079     +0.89532276     -0.36190225
e   0.9922641      Incl.   26.52105     +0.04662209     -0.50361592
From 29 observations 2016 Nov. 26-Dec. 21, mean residual 0".5.

* Magnitudes Graph

        m1 = 6.0 + 5 log d + 10.0 log r

---------------------------------------------------------------------

The orbital elements are published on M.P.E.C. 2016-Y34.
The magnitudes graphs are made with Comet for Windows.

---------------------------------------------------------------------

Copyright(C) Seiichi Yoshida (comet@aerith.net). All rights reserved.